FW7184 Weather Reports


Display with metric or nautical units.
time (UTC)temp
F
wind
direction
speed
MPH
gust
MPH
rain 1hr
in
rain 24hr
in
rain mn
in
humidity
%
barometer
mb
20260905212807 77 189 0.0 0.0 0.00 0.00 0.00 64 1011.2
20260905212307 77 267 1.0 1.0 0.00 0.00 0.00 64 1011.2
20260905211801 77 123 0.0 1.0 0.00 0.00 0.00 63 1011.0
20260905211256 77 357 2.0 2.0 0.00 0.00 0.00 64 1010.8
20260905210753 77 199 1.0 1.0 0.00 0.00 0.00 62 1010.9
20260905210252 77 187 2.0 2.0 0.00 0.00 0.00 62 1010.8
20260905205751 77 263 0.0 0.0 0.00 0.00 0.00 62 1011.0
20260905205246 77 220 0.0 1.0 0.00 0.00 0.00 63 1010.9
20260905204745 77 35 2.0 2.0 0.00 0.00 0.00 64 1010.7
20260905204242 77 181 0.0 0.0 0.00 0.00 0.00 64 1010.8
20260905203741 77 316 2.0 3.0 0.00 0.00 0.00 62 1010.6
20260905203236 77 235 2.0 2.0 0.00 0.00 0.00 62 1010.6
20260905202732 77 178 0.0 0.0 0.00 0.00 0.00 62 1010.8
20260905202227 77 211 0.0 1.0 0.00 0.00 0.00 61 1010.5
20260905201722 77 30 1.0 1.0 0.00 0.00 0.00 62 1010.6
20260905201223 77 116 0.0 0.0 0.00 0.00 0.00 61 1010.6
20260905200717 78 53 1.0 1.0 0.00 0.00 0.00 61 1010.8
20260905200208 78 336 0.0 0.0 0.00 0.00 0.00 60 1010.8
20260905195706 78 347 1.0 2.0 0.00 0.00 0.00 59 1010.8
20260905195201 78 73 1.0 1.0 0.00 0.00 0.00 58 1010.9
20260905194656 79 337 1.0 2.0 0.00 0.00 0.00 58 1010.6
20260905194155 79 177 1.0 1.0 0.00 0.00 0.00 57 1010.6
20260905193650 79 193 0.0 0.0 0.00 0.00 0.00 58 1010.5
20260905193145 78 210 1.0 2.0 0.00 0.00 0.00 59 1010.7
20260905192640 79 189 0.0 1.0 0.00 0.00 0.00 58 1010.8
20260905192137 78 206 0.0 0.0 0.00 0.00 0.00 57 1010.8
20260905191636 79 67 1.0 1.0 0.00 0.00 0.00 57 1010.7
20260905191134 79 202 1.0 1.0 0.00 0.00 0.00 56 1010.7
20260905190633 78 344 0.0 1.0 0.00 0.00 0.00 59 1010.8
20260905190132 78 170 1.0 1.0 0.00 0.00 0.00 60 1010.8
20260905185631 78 224 1.0 2.0 0.00 0.00 0.00 59 1011.0
20260905185126 77 246 0.0 1.0 0.00 0.00 0.00 60 1010.9
20260905184620 78 72 3.0 3.0 0.00 0.00 0.00 58 1010.9
20260905184119 78 300 2.0 2.0 0.00 0.00 0.00 61 1010.9
20260905183618 77 202 0.0 1.0 0.00 0.00 0.00 62 1011.1
20260905183114 77 6 2.0 2.0 0.00 0.00 0.00 63 1010.9
20260905182614 78 325 1.0 1.0 0.00 0.00 0.00 60 1011.1
20260905182113 78 296 1.0 1.0 0.00 0.00 0.00 61 1011.2
20260905181608 77 28 1.0 1.0 0.00 0.00 0.00 61 1011.2
20260905181107 78 144 0.0 0.0 0.00 0.00 0.00 60 1011.1
20260905180602 77 178 0.0 1.0 0.00 0.00 0.00 63 1011.3
20260905180058 78 100 1.0 1.0 0.00 0.00 0.00 62 1011.1
20260905175556 79 261 0.0 1.0 0.00 0.00 0.00 61 1011.1
20260905175052 78 265 1.0 1.0 0.00 0.00 0.00 62 1011.2
20260905174548 77 98 1.0 1.0 0.00 0.00 0.00 65 1011.7
20260905174043 77 122 0.0 0.0 0.00 0.00 0.00 62 1011.3
20260905173540 78 164 0.0 1.0 0.00 0.00 0.00 63 1011.6
20260905173035 78 63 2.0 2.0 0.00 0.00 0.00 62 1011.6
20260905172533 77 1 3.0 3.0 0.00 0.00 0.00 62 1011.5
20260905172029 77 23 1.0 2.0 0.00 0.00 0.00 64 1011.7
20260905171525 76 191 1.0 2.0 0.00 0.00 0.00 63 1011.6
20260905171021 77 142 1.0 1.0 0.00 0.00 0.00 64 1011.8
20260905170518 78 18 2.0 3.0 0.00 0.00 0.00 62 1011.2
20260905170012 77 209 1.0 2.0 0.00 0.00 0.00 62 1011.6
20260905165507 77 22 1.0 2.0 0.00 0.00 0.00 63 1011.5
20260905165002 77 209 1.0 1.0 0.00 0.00 0.00 66 1011.6
20260905164502 76 209 1.0 1.0 0.00 0.00 0.00 67 1011.5
20260905163956 76 210 0.0 1.0 0.00 0.00 0.00 68 1011.6
20260905163453 75 28 2.0 3.0 0.00 0.00 0.00 69 1011.6
20260905162949 75 243 1.0 2.0 0.00 0.00 0.00 67 1011.7
20260905162444 75 232 1.0 1.0 0.00 0.00 0.00 69 1011.7
20260905161939 75 133 0.0 0.0 0.00 0.00 0.00 68 1011.7
20260905161438 75 86 0.0 1.0 0.00 0.00 0.00 67 1011.3
20260905160936 75 208 1.0 1.0 0.00 0.00 0.00 68 1011.6
20260905160430 75 24 2.0 2.0 0.00 0.00 0.00 68 1011.2
20260905155929 75 182 0.0 0.0 0.00 0.00 0.00 69 1011.6
20260905155424 75 338 4.0 5.0 0.00 0.00 0.00 68 1011.6
20260905154923 74 40 0.0 1.0 0.00 0.00 0.00 70 1011.7
20260905154419 74 110 0.0 1.0 0.00 0.00 0.00 70 1011.8
20260905153914 74 100 1.0 2.0 0.00 0.00 0.00 68 1011.8
20260905153410 73 65 1.0 1.0 0.00 0.00 0.00 69 1011.6
20260905152910 73 166 1.0 1.0 0.00 0.00 0.00 69 1011.6
20260905152409 74 349 1.0 2.0 0.00 0.00 0.00 70 1011.6
20260905151904 74 80 1.0 2.0 0.00 0.00 0.00 69 1011.6
20260905151400 74 291 1.0 1.0 0.00 0.00 0.00 70 1011.6
20260905150855 74 183 1.0 1.0 0.00 0.00 0.00 71 1011.9
20260905150354 73 135 0.0 1.0 0.00 0.00 0.00 71 1011.7
20260905145852 74 334 1.0 1.0 0.00 0.00 0.00 72 1011.8
20260905145346 75 221 0.0 0.0 0.00 0.00 0.00 71 1011.7
20260905144845 75 261 1.0 1.0 0.00 0.00 0.00 71 1011.7
20260905144341 75 144 0.0 1.0 0.00 0.00 0.00 70 1011.7
20260905143839 74 192 2.0 3.0 0.00 0.00 0.00 71 1011.6
20260905143334 73 229 1.0 1.0 0.00 0.00 0.00 73 1011.7
20260905142834 73 111 0.0 1.0 0.00 0.00 0.00 74 1011.8
20260905142332 73 200 0.0 1.0 0.00 0.00 0.00 73 1011.6
20260905141829 72 192 2.0 3.0 0.00 0.00 0.00 76 1011.7
20260905141324 71 116 1.0 2.0 0.00 0.00 0.00 78 1011.6
20260905140820 71 26 3.0 5.0 0.00 0.00 0.00 78 1011.6
20260905140319 71 110 0.0 1.0 0.00 0.00 0.00 79 1011.6
20260905135818 70 253 2.0 3.0 0.00 0.00 0.00 79 1011.6
20260905135315 70 189 2.0 3.0 0.00 0.00 0.00 80 1011.5
20260905134810 70 196 0.0 1.0 0.00 0.00 0.00 81 1011.7
20260905134309 70 17 2.0 3.0 0.00 0.00 0.00 81 1011.7
20260905133809 70 5 4.0 5.0 0.00 0.00 0.00 81 1011.7
20260905133304 69 199 0.0 0.0 0.00 0.00 0.00 82 1011.5
20260905132803 69 2 3.0 5.0 0.00 0.00 0.00 84 1011.5
20260905132259 69 200 1.0 1.0 0.00 0.00 0.00 84 1011.9
20260905131753 69 345 3.0 3.0 0.00 0.00 0.00 83 1011.7
20260905131249 68 205 0.0 0.0 0.00 0.00 0.00 84 1011.5
20260905130744 68 4 1.0 2.0 0.00 0.00 0.00 85 1011.8
20260905130243 68 232 1.0 1.0 0.00 0.00 0.00 86 1011.8
20260905125738 67 355 1.0 2.0 0.00 0.00 0.00 86 1011.6
20260905125233 67 67 1.0 1.0 0.00 0.00 0.00 88 1011.8
20260905124730 67 11 1.0 2.0 0.00 0.00 0.00 89 1011.9
20260905124225 66 239 0.0 1.0 0.00 0.00 0.00 89 1012.0
20260905123720 66 172 0.0 0.0 0.00 0.00 0.00 90 1011.9
20260905123217 65 206 1.0 1.0 0.00 0.00 0.00 92 1012.1
20260905122716 65 223 0.0 0.0 0.00 0.00 0.00 94 1012.1
20260905122211 64 198 0.0 0.0 0.00 0.00 0.00 95 1012.1
20260905121706 63 197 0.0 0.0 0.00 0.00 0.00 98 1011.7
20260905121202 62 203 0.0 0.0 0.00 0.00 0.00 99 1012.0
20260905120701 62 204 0.0 0.0 0.00 0.00 0.00 99 1012.0
20260905120156 62 212 0.0 0.0 0.00 0.00 0.00 99 1012.1
20260905115656 62 207 0.0 0.0 0.00 0.00 0.00 99 1012.0
20260905115151 62 205 0.0 0.0 0.00 0.00 0.00 99 1011.8
20260905114650 62 204 0.0 0.0 0.00 0.00 0.00 99 1011.7
20260905114149 61 203 0.0 0.0 0.00 0.00 0.00 99 1011.8
20260905113643 61 204 0.0 0.0 0.00 0.00 0.00 99 1011.7
20260905113139 61 204 0.0 0.0 0.00 0.00 0.00 99 1011.6
20260905112639 60 204 0.0 0.0 0.00 0.00 0.00 99 1011.6
20260905112135 60 204 0.0 0.0 0.00 0.00 0.00 99 1011.5
20260905111635 60 204 0.0 0.0 0.00 0.00 0.00 99 1011.1
20260905111134 60 201 0.0 0.0 0.00 0.00 0.00 99 1011.1
20260905110633 60 198 0.0 0.0 0.00 0.00 0.00 99 1011.0
20260905110128 60 209 0.0 0.0 0.00 0.00 0.00 99 1011.1
20260905105624 59 207 0.0 0.0 0.00 0.00 0.00 99 1010.9
20260905105122 59 204 0.0 0.0 0.00 0.00 0.00 99 1011.0
20260905104618 59 204 0.0 0.0 0.00 0.00 0.00 99 1010.9
20260905104113 59 204 0.0 0.0 0.00 0.00 0.00 99 1011.2
20260905103608 59 206 0.0 0.0 0.00 0.00 0.00 99 1010.9
20260905103104 59 205 0.0 0.0 0.00 0.00 0.00 99 1011.2
20260905102554 59 205 0.0 0.0 0.00 0.00 0.00 99 1011.2
20260905102051 60 205 0.0 0.0 0.00 0.00 0.00 99 1011.1
20260905101549 60 205 0.0 0.0 0.00 0.00 0.00 99 1010.9
20260905101047 60 206 0.0 0.0 0.00 0.00 0.00 99 1011.0
20260905100544 60 207 0.0 0.0 0.00 0.00 0.00 99 1011.0
20260905100043 60 205 0.0 0.0 0.00 0.00 0.00 99 1010.9
20260905095538 60 208 0.0 0.0 0.00 0.00 0.00 99 1010.7
20260905095033 60 201 0.0 0.0 0.00 0.00 0.00 99 1010.9
20260905094528 60 201 0.0 0.0 0.00 0.00 0.00 99 1011.0
20260905094027 60 205 0.0 0.0 0.00 0.00 0.00 99 1010.6
20260905093522 60 202 0.0 0.0 0.00 0.00 0.00 99 1010.7
20260905093019 60 204 0.0 0.0 0.00 0.00 0.00 99 1010.8
20260905092519 61 204 0.0 0.0 0.00 0.00 0.00 99 1010.6
20260905092014 61 202 0.0 0.0 0.00 0.00 0.00 99 1010.7
20260905091513 61 204 0.0 0.0 0.00 0.00 0.00 99 1010.7
20260905091008 61 202 0.0 0.0 0.00 0.00 0.00 99 1010.6
20260905090503 61 201 0.0 0.0 0.00 0.00 0.00 99 1010.6
20260905090003 61 202 0.0 0.0 0.00 0.00 0.00 99 1010.7
20260905085501 62 202 0.0 0.0 0.00 0.00 0.00 99 1010.7
20260905084957 62 204 0.0 0.0 0.00 0.00 0.00 99 1010.6
20260905084457 62 205 0.0 0.0 0.00 0.00 0.00 99 1010.5
20260905083951 62 202 0.0 0.0 0.00 0.00 0.00 99 1010.8
20260905083447 62 202 0.0 0.0 0.00 0.00 0.00 99 1010.5
20260905082943 62 204 0.0 0.0 0.00 0.00 0.00 99 1010.7
20260905082439 63 206 0.0 0.0 0.00 0.00 0.00 98 1010.6
20260905081933 63 202 0.0 0.0 0.00 0.00 0.00 98 1010.7
20260905081428 63 199 0.0 0.0 0.00 0.00 0.00 98 1010.9
20260905080927 63 200 0.0 0.0 0.00 0.00 0.00 98 1010.7
20260905080422 64 202 0.0 0.0 0.00 0.00 0.00 97 1010.7
20260905075921 64 203 0.0 0.0 0.00 0.00 0.00 97 1010.5
20260905075415 64 201 0.0 0.0 0.00 0.00 0.00 97 1010.8
20260905074914 64 203 0.0 0.0 0.00 0.00 0.00 97 1010.7
20260905074410 64 201 0.0 0.0 0.00 0.00 0.00 97 1010.5
20260905073906 64 200 0.0 0.0 0.00 0.00 0.00 97 1010.7
20260905073401 64 202 0.0 0.0 0.00 0.00 0.00 97 1010.5
20260905072856 65 199 0.0 0.0 0.00 0.00 0.00 97 1010.4
20260905072350 65 202 0.0 0.0 0.00 0.00 0.00 97 1010.3
20260905071846 65 203 0.0 0.0 0.00 0.00 0.00 96 1010.6
20260905071338 65 201 0.0 0.0 0.00 0.00 0.00 96 1010.7
20260905070837 66 201 0.0 0.0 0.00 0.00 0.00 95 1010.6
20260905070334 66 200 0.0 0.0 0.00 0.00 0.00 95 1010.7
20260905065832 66 200 0.0 0.0 0.00 0.00 0.00 94 1010.8
20260905065331 66 203 0.0 0.0 0.00 0.00 0.00 93 1010.6
20260905064826 66 202 0.0 0.0 0.00 0.00 0.00 93 1010.8
20260905064322 66 202 0.0 0.0 0.00 0.00 0.00 93 1011.0
20260905063820 66 202 0.0 0.0 0.00 0.00 0.00 93 1010.8
20260905063317 66 200 0.0 0.0 0.00 0.00 0.00 93 1010.6
20260905062813 66 202 0.0 0.0 0.00 0.00 0.00 93 1010.8
20260905062313 67 201 0.0 0.0 0.00 0.00 0.00 93 1010.8
20260905061808 67 200 0.0 0.0 0.00 0.00 0.00 94 1010.8
20260905061302 67 200 0.0 0.0 0.00 0.00 0.00 94 1010.8
20260905060756 68 202 0.0 0.0 0.00 0.00 0.00 91 1011.0
20260905060253 67 206 0.0 0.0 0.00 0.00 0.00 92 1011.0
20260905055752 67 208 0.0 0.0 0.00 0.00 0.00 92 1010.9
20260905055247 67 194 0.0 0.0 0.00 0.00 0.00 91 1011.0
20260905054742 66 181 1.0 1.0 0.00 0.00 0.00 92 1010.9
20260905054238 66 204 0.0 0.0 0.00 0.00 0.00 94 1011.1
20260905053737 66 202 0.0 0.0 0.00 0.00 0.00 96 1011.1
20260905053233 65 194 0.0 0.0 0.00 0.00 0.00 98 1011.5
20260905052732 65 223 1.0 1.0 0.00 0.00 0.00 98 1011.3
20260905052227 65 195 0.0 0.0 0.00 0.00 0.00 98 1011.1
20260905051727 65 202 0.0 0.0 0.00 0.00 0.00 98 1011.5
20260905051224 65 216 0.0 0.0 0.00 0.00 0.00 98 1011.8
20260905050720 65 204 0.0 0.0 0.00 0.00 0.00 98 1011.5
20260905050216 65 204 0.0 0.0 0.00 0.00 0.00 98 1011.6
20260905045716 65 207 0.0 0.0 0.00 0.00 0.00 98 1011.6
20260905045211 65 202 0.0 0.0 0.00 0.00 0.00 98 1011.7
20260905044706 65 201 0.0 0.0 0.00 0.00 0.00 98 1011.8
20260905044201 65 203 0.0 0.0 0.00 0.00 0.00 97 1012.0
20260905043700 66 197 0.0 0.0 0.00 0.00 0.00 97 1011.7
20260905043154 65 200 0.0 0.0 0.00 0.00 0.00 97 1011.7
20260905042649 65 200 0.0 0.0 0.00 0.00 0.00 98 1011.7
20260905042148 65 200 0.0 0.0 0.00 0.00 0.00 98 1011.7
20260905041644 65 200 0.0 0.0 0.00 0.00 0.00 98 1011.6
20260905041139 65 202 0.0 0.0 0.00 0.00 0.00 99 1011.5
20260905040635 65 201 0.0 0.0 0.00 0.00 0.00 99 1011.7
20260905040133 66 202 0.0 0.0 0.00 0.00 0.00 99 1011.8
20260905035628 66 201 0.0 0.0 0.00 0.26 0.26 99 1011.7
20260905035125 66 201 0.0 0.0 0.00 0.26 0.26 99 1011.9
20260905034621 66 200 0.0 0.0 0.00 0.26 0.26 99 1011.6
20260905034120 66 201 0.0 0.0 0.00 0.26 0.26 99 1011.7
20260905033619 66 202 0.0 0.0 0.00 0.26 0.26 99 1012.0
20260905033116 65 200 0.0 0.0 0.00 0.26 0.26 99 1011.8
20260905032616 65 204 0.0 0.0 0.00 0.26 0.26 99 1011.8
20260905032115 65 202 0.0 0.0 0.00 0.26 0.26 99 1011.9
20260905031611 65 201 0.0 0.0 0.00 0.26 0.26 99 1011.9
20260905031111 65 204 0.0 0.0 0.00 0.26 0.26 99 1012.1
20260905030606 65 196 0.0 0.0 0.00 0.26 0.26 99 1012.0
20260905025557 65 200 0.0 0.0 0.00 0.26 0.26 99 1011.9
20260905025053 65 204 0.0 0.0 0.00 0.26 0.26 99 1011.8
20260905024548 65 200 0.0 0.0 0.00 0.26 0.26 99 1011.8
20260905024043 65 200 0.0 0.0 0.00 0.26 0.26 98 1012.0
20260905023538 65 200 0.0 0.0 0.00 0.26 0.26 98 1012.0
20260905023033 66 200 0.0 0.0 0.00 0.26 0.26 98 1011.7
20260905022532 66 201 0.0 0.0 0.00 0.26 0.26 98 1011.7
20260905022028 66 202 0.0 0.0 0.00 0.26 0.26 98 1011.8
20260905021527 66 198 0.0 0.0 0.00 0.26 0.26 97 1011.8
20260905021023 66 200 0.0 0.0 0.00 0.26 0.26 97 1011.8
20260905020522 66 200 0.0 0.0 0.00 0.26 0.26 97 1011.6
20260905020018 66 197 0.0 0.0 0.00 0.26 0.26 96 1011.9
20260905015515 67 197 0.0 0.0 0.00 0.26 0.26 96 1012.0
20260905015015 67 199 0.0 0.0 0.00 0.26 0.26 96 1011.9
20260905014510 67 202 0.0 0.0 0.00 0.26 0.26 95 1011.9
20260905014006 67 183 0.0 0.0 0.00 0.26 0.26 95 1011.9
20260905013502 67 195 0.0 0.0 0.00 0.26 0.26 95 1011.9
20260905012957 68 195 0.0 0.0 0.00 0.26 0.26 94 1011.8
20260905012452 68 195 0.0 0.0 0.00 0.26 0.26 94 1011.5
20260905011949 68 198 0.0 0.0 0.00 0.26 0.26 93 1011.7
20260905011444 68 195 0.0 0.0 0.00 0.26 0.26 93 1011.7
20260905010940 68 195 0.0 0.0 0.00 0.26 0.26 94 1011.6
20260905010435 69 194 0.0 0.0 0.00 0.26 0.26 93 1011.5
20260905005930 69 200 0.0 0.0 0.00 0.26 0.26 93 1011.9
20260905005426 69 190 0.0 0.0 0.00 0.26 0.26 93 1012.1
20260905004926 69 195 0.0 0.0 0.00 0.26 0.26 94 1011.9
20260905004421 69 195 0.0 0.0 0.00 0.26 0.26 93 1011.8
20260905003917 69 198 0.0 0.0 0.00 0.26 0.26 92 1011.7
20260905003412 69 194 0.0 0.0 0.00 0.26 0.26 92 1011.3
20260905002908 70 189 0.0 0.0 0.00 0.26 0.26 92 1011.5
20260905002407 70 197 0.0 0.0 0.00 0.26 0.26 92 1011.3
20260905001856 70 195 0.0 0.0 0.00 0.26 0.26 91 1011.3
20260905001356 71 200 0.0 0.0 0.00 0.26 0.26 90 1011.2
20260905000851 71 200 0.0 0.0 0.00 0.26 0.26 89 1011.3
20260905000348 71 191 0.0 0.0 0.00 0.26 0.26 88 1011.7
20260904235842 72 198 0.0 0.0 0.00 0.26 0.26 86 1011.2
20260904235338 72 198 0.0 0.0 0.00 0.26 0.26 84 1011.3
20260904234832 73 196 0.0 0.0 0.00 0.26 0.26 83 1011.3
20260904234333 73 199 0.0 0.0 0.00 0.26 0.26 81 1011.3
20260904233829 74 194 0.0 0.0 0.00 0.26 0.26 79 1011.5
20260904233324 74 197 0.0 0.0 0.00 0.26 0.26 78 1011.3
20260904232820 75 196 0.0 0.0 0.00 0.26 0.26 78 1011.3
20260904232317 75 197 0.0 0.0 0.00 0.26 0.26 78 1011.2
20260904231813 75 195 0.0 0.0 0.00 0.26 0.26 76 1011.1
20260904231307 76 172 0.0 0.0 0.00 0.26 0.26 75 1011.2
20260904230803 76 195 0.0 0.0 0.00 0.26 0.26 75 1011.2
20260904230301 76 194 0.0 0.0 0.00 0.26 0.26 75 1011.1
20260904225756 77 193 0.0 0.0 0.00 0.26 0.26 74 1011.0
20260904225249 77 191 0.0 0.0 0.00 0.26 0.26 73 1011.3
20260904224749 77 193 0.0 0.0 0.00 0.26 0.26 73 1011.1
20260904224244 77 195 0.0 0.0 0.00 0.26 0.26 73 1011.3
20260904223743 78 193 0.0 0.0 0.00 0.26 0.26 73 1011.2
20260904223238 78 195 0.0 0.0 0.00 0.26 0.26 73 1011.3
20260904222734 78 202 0.0 0.0 0.00 0.26 0.26 71 1011.3
20260904222224 78 176 0.0 1.0 0.00 0.26 0.26 70 1011.1
20260904221723 78 192 1.0 2.0 0.00 0.26 0.26 69 1011.1
20260904221218 79 190 0.0 0.0 0.00 0.26 0.26 69 1011.1
20260904220719 79 196 1.0 1.0 0.00 0.26 0.26 69 1011.2
20260904220214 79 196 0.0 0.0 0.00 0.26 0.26 70 1011.1
20260904215714 80 182 0.0 0.0 0.00 0.26 0.26 68 1011.1
20260904215209 80 198 0.0 0.0 0.00 0.26 0.26 69 1010.8
20260904214704 80 190 0.0 0.0 0.00 0.26 0.26 68 1011.1
20260904214200 80 189 0.0 0.0 0.00 0.26 0.26 65 1011.0
20260904213658 81 190 0.0 0.0 0.00 0.26 0.26 64 1010.9
20260904213154 81 46 2.0 2.0 0.00 0.26 0.26 63 1011.0